Starlink 32745

operational
NORAD ID: 62755 Int'l Des: 2025-014 Owner: SPXS Country: US Constellation: starlink
LEOCIRCULAR

Über Starlink 32745

Beschreibung wird geladen...

Live-Position

3D-Globus wird geladen...

Nächste Überflüge

Höhenverlauf

Altitude vs Time

uPlot chart will show altitude changes over time

Zweizeiliger Elementsatz

1 62755U 25014W 25351.15987633 .00012603 00000-0 46656-3 0 9997
2 62755 43.0002 260.6364 0001468 264.8120 95.2564 15.27590498 50630
Epoch: 17. Dez. 2025 • Age: 13 hours

Aktueller Status

Höhe 484.4 km
Geschwindigkeit 7.63 km/s
Subsatellitenpunkt 30.55°N, 38.92°W
Startdatum 21. Jan. 2025
Alter 0.9 years
Typ internet

Technische Details

Klassifizierung Payload
Masse 730.00 kg
Trockenmasse 700.00 kg
Gesamtmasse 730.00 kg
Länge 0.30 m
Durchmesser 4.10 m
Spannweite 29.00 m
Form Box + pan
Hersteller SPXS
Bus-Typ Starlink V2M
Phasenstatus In Orbit
Besitzer/Staat SPXS/US

Große Konstellationen

Loading constellations...